Time,TemperatureF,DewpointF,PressureIn,WindDirection,WindDirectionDegrees,WindSpeedMPH,WindSpeedGustMPH,Humidity,HourlyPrecipIn,Conditions,Clouds,dailyrainin,SoftwareType,DateUTC
2013-01-07 00:00:00,36.3,33.7,29.97,NNE,12,8.1,8.1,90,0.00,,,0.00,VWS V12.08,2013-01-06 23:00:00,
2013-01-07 00:01:00,36.3,33.7,29.97,North,357,7.6,8.1,90,0.00,,,0.00,VWS V12.08,2013-01-06 23:01:00,
2013-01-07 00:06:00,36.3,33.7,29.97,North,9,5.8,8.7,90,0.00,,,0.00,VWS V12.08,2013-01-06 23:06:00,
2013-01-07 00:10:00,36.3,33.7,29.97,NNE,15,3.1,8.7,90,0.00,,,0.00,VWS V12.08,2013-01-06 23:10:00,
2013-01-07 00:11:00,36.3,33.7,29.97,North,10,4.0,5.8,90,0.00,,,0.00,VWS V12.08,2013-01-06 23:11:00,
2013-01-07 00:16:00,36.3,33.7,29.97,NNE,12,6.3,8.1,90,0.00,,,0.00,VWS V12.08,2013-01-06 23:16:00,
2013-01-07 00:20:00,36.3,34.0,29.97,NNW,348,6.3,8.1,91,0.00,,,0.00,VWS V12.08,2013-01-06 23:20:00,
2013-01-07 00:21:00,36.3,34.0,29.97,NNE,15,5.4,7.6,91,0.00,,,0.00,VWS V12.08,2013-01-06 23:21:00,
2013-01-07 00:26:00,36.3,34.0,29.97,North,0,5.8,8.3,91,0.00,,,0.00,VWS V12.08,2013-01-06 23:26:00,
2013-01-07 00:30:00,36.3,34.0,29.97,North,353,4.9,8.3,91,0.00,,,0.00,VWS V12.08,2013-01-06 23:30:00,
2013-01-07 00:31:00,36.3,34.0,29.97,NNE,21,5.8,5.8,91,0.00,,,0.00,VWS V12.08,2013-01-06 23:31:00,
2013-01-07 00:36:00,36.3,34.0,29.97,North,7,5.8,6.3,91,0.00,,,0.00,VWS V12.08,2013-01-06 23:36:00,
2013-01-07 00:40:00,36.3,34.0,29.97,North,0,3.6,6.7,91,0.00,,,0.00,VWS V12.08,2013-01-06 23:40:00,
2013-01-07 00:41:00,36.3,34.0,29.97,NNE,17,3.1,5.8,91,0.00,,,0.00,VWS V12.08,2013-01-06 23:41:00,
2013-01-07 00:46:00,36.3,34.0,29.97,North,357,3.1,6.3,91,0.00,,,0.00,VWS V12.08,2013-01-06 23:46:00,
2013-01-07 00:50:00,36.3,34.0,29.97,North,357,6.3,6.3,91,0.00,,,0.00,VWS V12.08,2013-01-06 23:50:00,
2013-01-07 00:51:00,36.1,33.8,29.97,North,8,3.1,6.3,91,0.00,,,0.00,VWS V12.08,2013-01-06 23:51:00,
2013-01-07 00:56:00,36.1,33.8,29.97,NNE,17,3.6,6.3,91,0.00,,,0.00,VWS V12.08,2013-01-06 23:56:00,
2013-01-07 01:00:00,36.1,33.8,29.97,NNE,18,4.0,6.3,91,0.00,,,0.00,VWS V12.08,2013-01-07 00:00:00,
2013-01-07 01:01:00,36.1,33.8,29.97,North,5,4.9,4.9,91,0.00,,,0.00,VWS V12.08,2013-01-07 00:01:00,
2013-01-07 01:06:00,36.0,33.6,29.97,North,0,2.7,5.8,91,0.00,,,0.00,VWS V12.08,2013-01-07 00:06:00,
2013-01-07 01:10:00,35.8,33.4,29.97,North,0,5.4,6.3,91,0.00,,,0.00,VWS V12.08,2013-01-07 00:10:00,
2013-01-07 01:11:00,35.8,33.4,29.97,North,0,5.4,6.3,91,0.00,,,0.00,VWS V12.08,2013-01-07 00:11:00,
2013-01-07 01:16:00,35.8,33.4,29.97,North,0,5.4,6.3,91,0.00,,,0.00,VWS V12.08,2013-01-07 00:16:00,
2013-01-07 01:20:00,35.8,33.4,30.00,NNW,336,4.5,6.3,91,0.00,,,0.00,VWS V12.08,2013-01-07 00:20:00,
2013-01-07 01:21:00,35.8,33.4,30.00,NNW,342,5.4,5.4,91,0.00,,,0.00,VWS V12.08,2013-01-07 00:21:00,
2013-01-07 01:26:00,35.6,33.2,30.00,NNW,328,6.3,6.3,91,0.00,,,0.00,VWS V12.08,2013-01-07 00:26:00,
2013-01-07 01:30:00,35.6,33.2,30.00,NNW,339,5.4,8.1,91,0.00,,,0.00,VWS V12.08,2013-01-07 00:30:00,
2013-01-07 01:31:00,35.6,33.2,30.00,North,0,4.0,6.3,91,0.00,,,0.00,VWS V12.08,2013-01-07 00:31:00,
2013-01-07 01:36:00,35.4,33.1,30.00,North,0,3.6,6.3,91,0.00,,,0.00,VWS V12.08,2013-01-07 00:36:00,
2013-01-07 01:40:00,35.2,32.9,30.00,North,0,4.0,6.3,91,0.00,,,0.00,VWS V12.08,2013-01-07 00:40:00,
2013-01-07 01:41:00,35.2,32.9,30.00,North,0,3.1,4.0,91,0.00,,,0.00,VWS V12.08,2013-01-07 00:41:00,
2013-01-07 01:46:00,35.2,32.9,30.00,North,357,3.1,5.8,91,0.00,,,0.00,VWS V12.08,2013-01-07 00:46:00,
2013-01-07 01:50:00,35.4,33.3,30.00,North,357,3.6,5.8,92,0.00,,,0.00,VWS V12.08,2013-01-07 00:50:00,
2013-01-07 01:51:00,35.4,33.3,30.00,North,357,2.7,4.0,92,0.00,,,0.00,VWS V12.08,2013-01-07 00:51:00,
2013-01-07 01:56:00,35.4,33.3,30.00,North,357,3.1,6.3,92,0.00,,,0.00,VWS V12.08,2013-01-07 00:56:00,
2013-01-07 02:00:00,35.4,33.3,30.00,North,357,2.7,6.3,92,0.00,,,0.00,VWS V12.08,2013-01-07 01:00:00,
2013-01-07 02:01:00,35.6,33.2,30.00,North,357,0.0,3.6,91,0.00,,,0.00,VWS V12.08,2013-01-07 01:01:00,
2013-01-07 02:06:00,35.6,33.2,30.00,North,357,2.7,3.6,91,0.00,,,0.00,VWS V12.08,2013-01-07 01:06:00,
2013-01-07 02:10:00,35.6,33.2,30.00,North,0,0.0,3.6,91,0.00,,,0.00,VWS V12.08,2013-01-07 01:10:00,
2013-01-07 02:11:00,35.6,33.2,30.00,North,0,2.7,2.7,91,0.00,,,0.00,VWS V12.08,2013-01-07 01:11:00,
2013-01-07 02:16:00,35.6,33.2,30.00,North,2,2.7,3.1,91,0.00,,,0.00,VWS V12.08,2013-01-07 01:16:00,
2013-01-07 02:20:00,35.6,33.2,30.00,North,5,3.1,3.6,91,0.00,,,0.00,VWS V12.08,2013-01-07 01:20:00,
2013-01-07 02:21:00,35.6,33.2,30.00,North,8,4.9,5.4,91,0.00,,,0.00,VWS V12.08,2013-01-07 01:21:00,
2013-01-07 02:26:00,35.6,33.2,30.00,North,8,4.0,5.4,91,0.00,,,0.00,VWS V12.08,2013-01-07 01:26:00,
2013-01-07 02:30:00,35.6,33.2,30.00,North,8,3.1,5.4,91,0.00,,,0.00,VWS V12.08,2013-01-07 01:30:00,
2013-01-07 02:31:00,35.6,33.2,30.00,North,9,3.1,3.1,91,0.00,,,0.00,VWS V12.08,2013-01-07 01:31:00,
2013-01-07 02:36:00,35.6,33.2,30.00,NNE,14,3.6,4.0,91,0.00,,,0.00,VWS V12.08,2013-01-07 01:36:00,
2013-01-07 02:40:00,35.4,33.3,30.00,NNE,14,3.1,4.0,92,0.00,,,0.00,VWS V12.08,2013-01-07 01:40:00,
2013-01-07 02:41:00,35.4,33.3,30.00,NNE,14,0.0,3.1,92,0.00,,,0.00,VWS V12.08,2013-01-07 01:41:00,
2013-01-07 02:46:00,35.4,33.3,30.00,NNE,14,2.2,3.6,92,0.00,,,0.00,VWS V12.08,2013-01-07 01:46:00,
2013-01-07 02:50:00,35.2,32.9,30.00,NNE,14,0.0,3.6,91,0.00,,,0.00,VWS V12.08,2013-01-07 01:50:00,
2013-01-07 02:51:00,35.1,32.7,30.00,NNE,14,2.7,2.7,91,0.00,,,0.00,VWS V12.08,2013-01-07 01:51:00,
2013-01-07 02:56:00,35.1,32.7,30.00,NNE,14,0.0,2.7,91,0.00,,,0.00,VWS V12.08,2013-01-07 01:56:00,
2013-01-07 03:00:00,34.9,32.5,30.00,NNE,14,0.0,2.7,91,0.00,,,0.00,VWS V12.08,2013-01-07 02:00:00,
2013-01-07 03:01:00,34.9,32.5,30.00,NNE,14,0.0,0.0,91,0.00,,,0.00,VWS V12.08,2013-01-07 02:01:00,
2013-01-07 03:06:00,34.7,32.3,30.03,NNE,14,0.0,0.0,91,0.00,,,0.00,VWS V12.08,2013-01-07 02:06:00,
2013-01-07 03:10:00,34.5,32.2,30.03,NNE,14,0.0,0.0,91,0.00,,,0.00,VWS V12.08,2013-01-07 02:10:00,
2013-01-07 03:11:00,34.5,32.2,30.03,NNE,14,0.0,0.0,91,0.00,,,0.00,VWS V12.08,2013-01-07 02:11:00,
2013-01-07 03:16:00,34.5,32.2,30.03,NNE,14,0.0,2.2,91,0.00,,,0.00,VWS V12.08,2013-01-07 02:16:00,
2013-01-07 03:20:00,34.5,32.2,30.00,NNE,14,0.0,3.6,91,0.00,,,0.00,VWS V12.08,2013-01-07 02:20:00,
2013-01-07 03:21:00,34.5,32.2,30.00,NNE,14,2.2,2.7,91,0.00,,,0.00,VWS V12.08,2013-01-07 02:21:00,
2013-01-07 03:26:00,34.5,32.2,30.00,NNE,14,2.7,3.6,91,0.00,,,0.00,VWS V12.08,2013-01-07 02:26:00,
2013-01-07 03:30:00,34.3,32.0,30.00,NNE,14,2.7,3.6,91,0.00,,,0.00,VWS V12.08,2013-01-07 02:30:00,
2013-01-07 03:31:00,34.3,32.0,30.00,NNE,14,3.1,3.1,91,0.00,,,0.00,VWS V12.08,2013-01-07 02:31:00,
2013-01-07 03:36:00,34.3,32.0,30.03,NNE,14,3.6,4.0,91,0.00,,,0.00,VWS V12.08,2013-01-07 02:36:00,
2013-01-07 03:40:00,34.5,32.4,30.03,NNE,14,5.4,5.8,92,0.00,,,0.00,VWS V12.08,2013-01-07 02:40:00,
2013-01-07 03:41:00,34.5,32.4,30.03,NNE,14,5.4,6.3,92,0.00,,,0.00,VWS V12.08,2013-01-07 02:41:00,
2013-01-07 03:46:00,34.5,32.4,30.03,NNE,14,4.0,6.3,92,0.00,,,0.00,VWS V12.08,2013-01-07 02:46:00,
2013-01-07 03:50:00,34.5,32.4,30.03,NNE,14,3.6,6.3,92,0.00,,,0.00,VWS V12.08,2013-01-07 02:50:00,
2013-01-07 03:51:00,34.5,32.4,30.03,NNE,14,2.7,3.6,92,0.00,,,0.00,VWS V12.08,2013-01-07 02:51:00,
2013-01-07 03:56:00,34.7,32.6,30.03,NNE,14,2.7,4.0,92,0.00,,,0.00,VWS V12.08,2013-01-07 02:56:00,
2013-01-07 04:00:00,34.7,32.6,30.03,NNE,14,3.1,4.9,92,0.00,,,0.00,VWS V12.08,2013-01-07 03:00:00,
2013-01-07 04:01:00,34.7,32.6,30.03,NNE,14,3.1,4.9,92,0.00,,,0.00,VWS V12.08,2013-01-07 03:01:00,
2013-01-07 04:06:00,34.7,32.6,30.03,NNE,14,3.6,4.9,92,0.00,,,0.00,VWS V12.08,2013-01-07 03:06:00,
2013-01-07 04:10:00,34.5,32.4,30.03,NNE,14,2.7,4.9,92,0.00,,,0.00,VWS V12.08,2013-01-07 03:10:00,
2013-01-07 04:11:00,34.5,32.4,30.03,NNE,14,3.6,4.0,92,0.00,,,0.00,VWS V12.08,2013-01-07 03:11:00,
2013-01-07 04:16:00,34.5,32.2,30.03,NNE,14,3.6,6.3,91,0.00,,,0.00,VWS V12.08,2013-01-07 03:16:00,
2013-01-07 04:20:00,34.5,32.2,30.06,NNE,14,4.0,6.3,91,0.00,,,0.00,VWS V12.08,2013-01-07 03:20:00,
2013-01-07 04:21:00,34.3,32.0,30.06,NNE,14,3.6,5.4,91,0.00,,,0.00,VWS V12.08,2013-01-07 03:21:00,
2013-01-07 04:26:00,34.3,32.0,30.06,NNE,14,5.8,6.3,91,0.00,,,0.00,VWS V12.08,2013-01-07 03:26:00,
2013-01-07 04:30:00,34.3,32.0,30.06,NNE,14,3.6,7.6,91,0.00,,,0.00,VWS V12.08,2013-01-07 03:30:00,
2013-01-07 04:31:00,34.3,32.0,30.06,NNE,14,2.7,6.3,91,0.00,,,0.00,VWS V12.08,2013-01-07 03:31:00,
2013-01-07 04:36:00,34.3,32.3,30.06,NNE,14,5.4,6.3,92,0.00,,,0.00,VWS V12.08,2013-01-07 03:36:00,
2013-01-07 04:40:00,34.3,32.3,30.06,NNE,14,4.0,6.3,92,0.00,,,0.00,VWS V12.08,2013-01-07 03:40:00,
2013-01-07 04:41:00,34.3,32.3,30.06,NNE,14,6.3,6.3,92,0.00,,,0.00,VWS V12.08,2013-01-07 03:41:00,
2013-01-07 04:46:00,34.3,32.0,30.06,NNE,14,4.9,6.3,91,0.00,,,0.00,VWS V12.08,2013-01-07 03:46:00,
2013-01-07 04:50:00,34.3,32.0,30.06,NNE,14,6.3,6.3,91,0.00,,,0.00,VWS V12.08,2013-01-07 03:50:00,
2013-01-07 04:51:00,34.3,32.0,30.06,NNE,14,6.3,8.3,91,0.00,,,0.00,VWS V12.08,2013-01-07 03:51:00,
2013-01-07 04:56:00,34.3,32.3,30.06,NNE,14,4.0,8.3,92,0.00,,,0.00,VWS V12.08,2013-01-07 03:56:00,
2013-01-07 05:00:00,34.3,32.0,30.06,NNE,14,2.7,8.3,91,0.00,,,0.00,VWS V12.08,2013-01-07 04:00:00,
2013-01-07 05:01:00,34.3,32.0,30.06,NNE,14,4.0,4.0,91,0.00,,,0.00,VWS V12.08,2013-01-07 04:01:00,
2013-01-07 05:06:00,34.3,32.0,30.06,NNE,14,2.7,5.8,91,0.00,,,0.00,VWS V12.08,2013-01-07 04:06:00,
2013-01-07 05:10:00,34.2,31.8,30.06,NNE,14,4.0,6.3,91,0.00,,,0.00,VWS V12.08,2013-01-07 04:10:00,
2013-01-07 05:11:00,34.2,31.8,30.06,NNE,14,3.1,4.0,91,0.00,,,0.00,VWS V12.08,2013-01-07 04:11:00,
2013-01-07 05:16:00,34.2,31.8,30.06,NNE,14,5.4,5.8,91,0.00,,,0.00,VWS V12.08,2013-01-07 04:16:00,
2013-01-07 05:20:00,34.2,31.8,30.06,NNE,14,4.9,5.8,91,0.00,,,0.00,VWS V12.08,2013-01-07 04:20:00,
2013-01-07 05:21:00,34.2,32.1,30.06,NNE,14,3.6,4.9,92,0.00,,,0.00,VWS V12.08,2013-01-07 04:21:00,
2013-01-07 05:26:00,34.2,31.8,30.06,NNE,14,4.9,6.3,91,0.00,,,0.00,VWS V12.08,2013-01-07 04:26:00,
2013-01-07 05:30:00,34.2,31.8,30.06,NNE,14,4.0,6.3,91,0.00,,,0.00,VWS V12.08,2013-01-07 04:30:00,
2013-01-07 05:31:00,34.2,31.8,30.06,NNE,14,5.8,5.8,91,0.00,,,0.00,VWS V12.08,2013-01-07 04:31:00,
2013-01-07 05:36:00,34.2,32.1,30.09,NNE,14,5.8,6.3,92,0.00,,,0.00,VWS V12.08,2013-01-07 04:36:00,
2013-01-07 05:40:00,34.3,32.3,30.09,NNE,14,5.8,7.6,92,0.00,,,0.00,VWS V12.08,2013-01-07 04:40:00,
2013-01-07 05:41:00,34.3,32.0,30.09,NNE,14,6.3,6.3,91,0.00,,,0.00,VWS V12.08,2013-01-07 04:41:00,
2013-01-07 05:46:00,34.2,31.8,30.09,NNE,14,5.4,7.6,91,0.00,,,0.00,VWS V12.08,2013-01-07 04:46:00,
2013-01-07 05:50:00,34.2,31.8,30.09,NNE,14,5.4,7.6,91,0.00,,,0.00,VWS V12.08,2013-01-07 04:50:00,
2013-01-07 05:51:00,34.2,31.8,30.09,NNE,14,3.6,5.8,91,0.00,,,0.00,VWS V12.08,2013-01-07 04:51:00,
2013-01-07 05:56:00,34.0,31.6,30.09,NNE,14,3.6,5.8,91,0.00,,,0.00,VWS V12.08,2013-01-07 04:56:00,
2013-01-07 06:00:00,34.0,31.6,30.09,NNE,14,2.7,5.8,91,0.00,,,0.00,VWS V12.08,2013-01-07 05:00:00,
2013-01-07 06:05:00,34.0,31.6,30.09,NNE,14,2.7,5.4,91,0.00,,,0.00,VWS V12.08,2013-01-07 05:05:00,
2013-01-07 06:10:00,33.8,31.5,30.09,NNE,14,3.6,3.6,91,0.00,,,0.00,VWS V12.08,2013-01-07 05:10:00,
2013-01-07 06:15:00,33.8,31.5,30.09,NNE,14,4.9,4.9,91,0.00,,,0.00,VWS V12.08,2013-01-07 05:15:00,
2013-01-07 06:20:00,33.6,31.3,30.12,NNE,14,4.0,4.9,91,0.00,,,0.00,VWS V12.08,2013-01-07 05:20:00,
2013-01-07 06:25:00,33.6,31.3,30.12,NNE,14,3.6,5.4,91,0.00,,,0.00,VWS V12.08,2013-01-07 05:25:00,
2013-01-07 06:30:00,33.4,31.1,30.12,NNE,14,2.2,2.2,91,0.00,,,0.00,VWS V12.08,2013-01-07 05:30:00,
2013-01-07 06:35:00,33.3,30.9,30.12,NNE,14,0.0,3.1,91,0.00,,,0.00,VWS V12.08,2013-01-07 05:35:00,
2013-01-07 06:40:00,33.1,30.5,30.12,NNE,14,0.0,0.0,90,0.00,,,0.00,VWS V12.08,2013-01-07 05:40:00,
2013-01-07 06:45:00,32.7,30.1,30.12,NNE,14,2.2,2.7,90,0.00,,,0.00,VWS V12.08,2013-01-07 05:45:00,
2013-01-07 06:50:00,32.5,29.9,30.12,NNE,14,2.2,2.7,90,0.00,,,0.00,VWS V12.08,2013-01-07 05:50:00,
2013-01-07 06:55:00,32.4,29.8,30.12,NNE,14,2.7,4.0,90,0.00,,,0.00,VWS V12.08,2013-01-07 05:55:00,
2013-01-07 07:00:00,32.2,29.6,30.12,NNE,14,2.2,3.6,90,0.00,,,0.00,VWS V12.08,2013-01-07 06:00:00,
2013-01-07 07:05:00,32.2,29.6,30.12,NNE,14,2.7,4.9,90,0.00,,,0.00,VWS V12.08,2013-01-07 06:05:00,
2013-01-07 07:10:00,32.0,29.4,30.12,NNE,14,2.2,2.7,90,0.00,,,0.00,VWS V12.08,2013-01-07 06:10:00,
2013-01-07 07:15:00,32.0,29.4,30.12,NNE,14,2.7,4.9,90,0.00,,,0.00,VWS V12.08,2013-01-07 06:15:00,
2013-01-07 07:20:00,32.0,29.4,30.12,NNE,14,2.2,2.2,90,0.00,,,0.00,VWS V12.08,2013-01-07 06:20:00,